Regional Weather Roundup
Issued by NWS

Home | Current Version | Previous Version | Text Only | Print | Product List | Glossary Off
Versions: 1 2 3 4 5 6 7 8 9 10 11 12 13 14 15 16 17 18 19 20 21 22 23 24 25 26 27 28 29 30 31 32 33 34 35 36 37 38 39 40 41 42 43 44 45 46 47 48 49 50

000
ASUS44 KMEG 272100
RWRTN
TENNESSEE HOURLY STATE WEATHER ROUNDUP
NATIONAL WEATHER SERVICE MEMPHIS TN
400 PM CDT SUN JUL 27 2014

TNZ002-004-019-021-049-052-054-088>092-272200-
WEST TENNESSEE

CITY           SKY/WX    TMP DP  RH WIND       PRES   REMARKS
MEMPHIS INTL   CLOUDY    92  77  61 W13       29.94F HX 105
NWS MEMPHIS      N/A     89 N/A N/A MISG        N/A
JACKSON        PTSUNNY   90  75  61 W12       29.92F HX 100
DYERSBURG      PTSUNNY   90  70  51 SW17      29.91F HX  95
$$

TNZ008-025-027-028-033-062-065-066-272200-
NORTH MIDDLE TENNESSEE

CITY           SKY/WX    TMP DP  RH WIND       PRES   REMARKS
NASHVILLE      PTSUNNY   94  75  54 SW9G23    29.87F HX 105
CLARKSVILLE    CLOUDY    91  74  57 W17G24    29.86S HX 100
CROSSVILLE     MOSUNNY   85  70  60 W15G25    29.93F
$$

TNZ061-075-076-078-094-096-097-272200-
SOUTH MIDDLE TENNESSEE

CITY           SKY/WX    TMP DP  RH WIND       PRES   REMARKS
FAYETTEVILLE   SUNNY     88  72  58 SW17      29.95F HX  94
WINCHESTER     MOSUNNY   90  73  58 SW9       29.94F HX  98
COLUMBIA       PTSUNNY   91  75  59 SW14      29.90F HX 102
$$

TNZ017-018-042-046-047-272200-
NORTHEAST TENNESSEE

CITY           SKY/WX    TMP DP  RH WIND       PRES   REMARKS
TRI CITIES     CLOUDY    79  72  79 CALM      29.91F
ELIZABETHTON   CLEAR     77  72  83 VRB3      29.93F
$$

TNZ012-013-036-069-073-074-272200-
CENTRAL EAST TENNESSEE

CITY           SKY/WX    TMP DP  RH WIND       PRES   REMARKS
KNOXVILLE      PTSUNNY   90  72  55 SW20G28   29.85F HX  97
OAK RIDGE      PTSUNNY   92  71  50 SW9       29.86F HX  98
GATLINBURG       N/A     84  70  61 W3        29.86F
$$

TNZ083-085-099-272200-
SOUTHEAST TENNESSEE

CITY           SKY/WX    TMP DP  RH WIND       PRES   REMARKS
CHATTANOOGA    MOSUNNY   93  70  46 SW14G23   29.91F HX  99
$$

SKY/WX REPORTED AS FAIR MEANS FEW OR NO CLOUDS BELOW
12 THOUSAND FEET.




USA.gov is the U.S. government's official web portal to all federal, state and local government web resources and services.